| time (UTC) | temp F | wind direction | speed MPH | gust MPH | rain 1hr in | rain 24hr in | rain mn in | humidity % | barometer mb |
| 20260509052804 | 54 | 150 | 2.0 | 5.0 | 0.00 | 0.00 | 0.00 | 82 | 1013.4 |
| 20260509052307 | 54 | 142 | 1.0 | 3.0 | 0.00 | 0.00 | 0.00 | 83 | 1013.4 |
| 20260509051304 | 54 | 142 | 1.0 | 5.0 | 0.00 | 0.00 | 0.00 | 83 | 1013.5 |
| 20260509045307 | 54 | 163 | 2.0 | 3.0 | 0.00 | 0.00 | 0.00 | 86 | 1013.5 |
| 20260509044804 | 54 | 163 | 1.0 | 3.0 | 0.00 | 0.00 | 0.00 | 87 | 1013.4 |
| 20260509044306 | 53 | 163 | 1.0 | 3.0 | 0.00 | 0.00 | 0.00 | 87 | 1013.5 |
| 20260509043305 | 54 | 163 | 0.0 | 1.0 | 0.00 | 0.00 | 0.00 | 87 | 1013.6 |
| 20260509040815 | 54 | 163 | 0.0 | 1.0 | 0.00 | 0.00 | 0.00 | 85 | 1013.7 |
| 20260509035306 | 55 | 163 | 0.0 | 2.0 | 0.00 | 0.00 | 0.00 | 83 | 1013.7 |
| 20260509034304 | 55 | 163 | 0.0 | 2.0 | 0.00 | 0.00 | 0.00 | 82 | 1013.7 |
| 20260509033804 | 55 | 163 | 0.0 | 2.0 | 0.00 | 0.00 | 0.00 | 81 | 1013.7 |
| 20260509032804 | 56 | 163 | 0.0 | 0.0 | 0.00 | 0.00 | 0.00 | 80 | 1013.7 |
| 20260509032306 | 56 | 163 | 0.0 | 0.0 | 0.00 | 0.00 | 0.00 | 79 | 1013.7 |
| 20260509031305 | 57 | 163 | 0.0 | 0.0 | 0.00 | 0.00 | 0.00 | 78 | 1013.8 |
| 20260509030305 | 57 | 163 | 0.0 | 0.0 | 0.00 | 0.00 | 0.00 | 76 | 1013.8 |
| 20260509025806 | 57 | 163 | 0.0 | 0.0 | 0.00 | 0.00 | 0.00 | 75 | 1013.9 |
| 20260509025307 | 58 | 163 | 0.0 | 0.0 | 0.00 | 0.00 | 0.00 | 74 | 1013.9 |
| 20260509024804 | 58 | 163 | 0.0 | 0.0 | 0.00 | 0.00 | 0.00 | 73 | 1013.9 |
| 20260509023804 | 59 | 163 | 0.0 | 2.0 | 0.00 | 0.00 | 0.00 | 72 | 1013.8 |
| 20260509021805 | 60 | 163 | 0.0 | 1.0 | 0.00 | 0.00 | 0.00 | 69 | 1013.9 |
| 20260509020804 | 61 | 163 | 0.0 | 1.0 | 0.00 | 0.00 | 0.00 | 68 | 1013.9 |
| 20260509020304 | 61 | 163 | 0.0 | 1.0 | 0.00 | 0.00 | 0.00 | 67 | 1013.7 |
| 20260509015804 | 61 | 163 | 0.0 | 2.0 | 0.00 | 0.00 | 0.00 | 67 | 1013.8 |
| 20260509014804 | 61 | 163 | 0.0 | 2.0 | 0.00 | 0.00 | 0.00 | 67 | 1013.8 |
| 20260509014305 | 61 | 163 | 0.0 | 5.0 | 0.00 | 0.00 | 0.00 | 65 | 1013.7 |
| 20260509013305 | 62 | 163 | 1.0 | 5.0 | 0.00 | 0.00 | 0.00 | 65 | 1013.8 |
| 20260509011805 | 62 | 162 | 2.0 | 5.0 | 0.00 | 0.00 | 0.00 | 63 | 1013.7 |
| 20260509004804 | 63 | 169 | 2.0 | 5.0 | 0.00 | 0.00 | 0.00 | 62 | 1013.4 |
| 20260509003304 | 63 | 161 | 2.0 | 6.0 | 0.00 | 0.00 | 0.00 | 60 | 1013.1 |
| 20260509002806 | 63 | 161 | 3.0 | 6.0 | 0.00 | 0.00 | 0.00 | 59 | 1013.0 |
| 20260509002306 | 63 | 156 | 2.0 | 7.0 | 0.00 | 0.00 | 0.00 | 57 | 1013.0 |
| 20260509001305 | 63 | 225 | 0.0 | 2.0 | 0.00 | 0.00 | 0.00 | 51 | 1012.8 |
| 20260509000804 | 63 | 224 | 0.0 | 0.0 | 0.00 | 0.00 | 0.00 | 51 | 1012.7 |
| 20260509000305 | 63 | 224 | 0.0 | 1.0 | 0.00 | 0.00 | 0.00 | 50 | 1012.7 |
| 20260508235804 | 64 | 224 | 0.0 | 1.0 | 0.00 | 0.00 | 0.00 | 50 | 1012.6 |
| 20260508235306 | 64 | 224 | 0.0 | 1.0 | 0.00 | 0.00 | 0.00 | 48 | 1012.5 |
| 20260508234804 | 65 | 224 | 0.0 | 2.0 | 0.00 | 0.00 | 0.00 | 47 | 1012.5 |
| 20260508233304 | 66 | 224 | 1.0 | 2.0 | 0.00 | 0.00 | 0.00 | 44 | 1012.5 |
| 20260508232805 | 66 | 224 | 0.0 | 3.0 | 0.00 | 0.00 | 0.00 | 40 | 1012.4 |
| 20260508231304 | 67 | 198 | 1.0 | 3.0 | 0.00 | 0.00 | 0.00 | 38 | 1012.3 |
| 20260508230804 | 67 | 212 | 1.0 | 3.0 | 0.00 | 0.00 | 0.00 | 39 | 1012.3 |
| 20260508225306 | 68 | 217 | 2.0 | 7.0 | 0.00 | 0.00 | 0.00 | 39 | 1012.2 |
| 20260508224804 | 68 | 274 | 3.0 | 7.0 | 0.00 | 0.00 | 0.00 | 38 | 1012.2 |
| 20260508224306 | 68 | 245 | 1.0 | 6.0 | 0.00 | 0.00 | 0.00 | 38 | 1012.2 |
| 20260508223805 | 68 | 245 | 2.0 | 6.0 | 0.00 | 0.00 | 0.00 | 38 | 1012.1 |
| 20260508223304 | 68 | 236 | 1.0 | 8.0 | 0.00 | 0.00 | 0.00 | 37 | 1012.2 |
| 20260508222805 | 68 | 205 | 2.0 | 10.0 | 0.00 | 0.00 | 0.00 | 37 | 1012.3 |
| 20260508222306 | 68 | 250 | 5.0 | 10.0 | 0.00 | 0.00 | 0.00 | 36 | 1012.3 |
| 20260508220805 | 69 | 210 | 0.0 | 9.0 | 0.00 | 0.00 | 0.00 | 36 | 1012.2 |
| 20260508215804 | 69 | 210 | 3.0 | 10.0 | 0.00 | 0.00 | 0.00 | 35 | 1012.2 |
| 20260508214305 | 70 | 209 | 5.0 | 12.0 | 0.00 | 0.00 | 0.00 | 35 | 1012.2 |
| 20260508212805 | 69 | 209 | 3.0 | 8.0 | 0.00 | 0.00 | 0.00 | 36 | 1012.1 |
| 20260508211804 | 69 | 234 | 3.0 | 12.0 | 0.00 | 0.00 | 0.00 | 34 | 1012.1 |
| 20260508205306 | 70 | 251 | 4.0 | 12.0 | 0.00 | 0.00 | 0.00 | 33 | 1012.0 |
| 20260508203805 | 71 | 203 | 3.0 | 10.0 | 0.00 | 0.00 | 0.00 | 35 | 1012.3 |
| 20260508203305 | 71 | 220 | 4.0 | 14.0 | 0.00 | 0.00 | 0.00 | 34 | 1012.2 |
| 20260508202804 | 72 | 169 | 5.0 | 14.0 | 0.00 | 0.00 | 0.00 | 34 | 1012.3 |
| 20260508202307 | 72 | 290 | 4.0 | 10.0 | 0.00 | 0.00 | 0.00 | 33 | 1012.4 |
| 20260508194305 | 68 | 204 | 5.0 | 12.0 | 0.00 | 0.00 | 0.00 | 37 | 1012.9 |
| 20260508192306 | 69 | 274 | 6.0 | 23.0 | 0.00 | 0.00 | 0.00 | 37 | 1013.2 |
| 20260508191804 | 71 | 283 | 10.0 | 23.0 | 0.00 | 0.00 | 0.00 | 37 | 1013.3 |
| 20260508191305 | 71 | 276 | 7.0 | 20.0 | 0.00 | 0.00 | 0.00 | 38 | 1013.3 |
| 20260508185306 | 70 | 201 | 7.0 | 20.0 | 0.00 | 0.00 | 0.00 | 36 | 1013.4 |
| 20260508184306 | 69 | 205 | 7.0 | 17.0 | 0.00 | 0.00 | 0.00 | 37 | 1013.4 |
| 20260508182804 | 69 | 282 | 8.0 | 20.0 | 0.00 | 0.00 | 0.00 | 38 | 1013.6 |
| 20260508181804 | 69 | 256 | 5.0 | 14.0 | 0.00 | 0.00 | 0.00 | 37 | 1013.5 |
| 20260508180806 | 70 | 162 | 3.0 | 16.0 | 0.00 | 0.00 | 0.00 | 39 | 1013.5 |
| 20260508174304 | 69 | 269 | 6.0 | 12.0 | 0.00 | 0.00 | 0.00 | 38 | 1013.9 |
| 20260508173304 | 68 | 242 | 5.0 | 16.0 | 0.00 | 0.00 | 0.00 | 37 | 1014.2 |
| 20260508172307 | 70 | 191 | 5.0 | 13.0 | 0.00 | 0.00 | 0.00 | 39 | 1014.2 |
| 20260508170803 | 69 | 279 | 6.0 | 18.0 | 0.00 | 0.00 | 0.00 | 39 | 1014.2 |
| 20260508165805 | 68 | 267 | 7.0 | 16.0 | 0.00 | 0.00 | 0.00 | 40 | 1014.3 |
| 20260508164804 | 69 | 239 | 10.0 | 20.0 | 0.00 | 0.00 | 0.00 | 38 | 1014.5 |
| 20260508162804 | 67 | 255 | 8.0 | 16.0 | 0.00 | 0.00 | 0.00 | 40 | 1014.5 |
| 20260508162306 | 67 | 228 | 6.0 | 17.0 | 0.00 | 0.00 | 0.00 | 38 | 1014.6 |
| 20260508161804 | 67 | 244 | 9.0 | 17.0 | 0.00 | 0.00 | 0.00 | 39 | 1014.6 |
| 20260508160304 | 67 | 247 | 3.0 | 14.0 | 0.00 | 0.00 | 0.00 | 41 | 1014.7 |
| 20260508153304 | 65 | 222 | 3.0 | 13.0 | 0.00 | 0.00 | 0.00 | 42 | 1015.3 |
| 20260508152804 | 65 | 254 | 6.0 | 15.0 | 0.00 | 0.00 | 0.00 | 42 | 1015.3 |
| 20260508152306 | 66 | 251 | 6.0 | 15.0 | 0.00 | 0.00 | 0.00 | 42 | 1015.2 |
| 20260508151804 | 65 | 240 | 3.0 | 10.0 | 0.00 | 0.00 | 0.00 | 45 | 1015.3 |
| 20260508145307 | 63 | 255 | 4.0 | 12.0 | 0.00 | 0.00 | 0.00 | 43 | 1015.4 |
| 20260508144304 | 62 | 203 | 3.0 | 14.0 | 0.00 | 0.00 | 0.00 | 43 | 1015.4 |
| 20260508135306 | 59 | 216 | 5.0 | 10.0 | 0.00 | 0.00 | 0.00 | 44 | 1015.9 |
| 20260508134804 | 59 | 164 | 2.0 | 10.0 | 0.00 | 0.00 | 0.00 | 42 | 1015.9 |
| 20260508134304 | 60 | 222 | 5.0 | 10.0 | 0.00 | 0.00 | 0.00 | 43 | 1015.9 |
| 20260508133805 | 60 | 256 | 3.0 | 10.0 | 0.00 | 0.00 | 0.00 | 43 | 1016.0 |
| 20260508132804 | 59 | 201 | 3.0 | 6.0 | 0.00 | 0.00 | 0.00 | 44 | 1016.2 |
| 20260508132306 | 58 | 236 | 2.0 | 6.0 | 0.00 | 0.00 | 0.00 | 43 | 1016.2 |
| 20260508131804 | 57 | 270 | 3.0 | 6.0 | 0.00 | 0.00 | 0.00 | 46 | 1016.1 |
| 20260508130304 | 57 | 203 | 2.0 | 6.0 | 0.00 | 0.00 | 0.00 | 51 | 1016.1 |
| 20260508125804 | 56 | 269 | 2.0 | 6.0 | 0.00 | 0.00 | 0.00 | 52 | 1016.1 |
| 20260508125306 | 56 | 304 | 2.0 | 6.0 | 0.00 | 0.00 | 0.00 | 51 | 1016.2 |
| 20260508122804 | 55 | 289 | 2.0 | 3.0 | 0.00 | 0.00 | 0.00 | 62 | 1016.2 |
| 20260508121304 | 54 | 300 | 2.0 | 6.0 | 0.00 | 0.00 | 0.00 | 65 | 1016.1 |
| 20260508120804 | 54 | 269 | 2.0 | 6.0 | 0.00 | 0.00 | 0.00 | 65 | 1016.1 |
| 20260508115804 | 53 | 284 | 1.0 | 3.0 | 0.00 | 0.00 | 0.00 | 69 | 1016.0 |
| 20260508114804 | 51 | 282 | 2.0 | 6.0 | 0.00 | 0.00 | 0.00 | 69 | 1015.9 |
| 20260508113806 | 51 | 272 | 2.0 | 3.0 | 0.00 | 0.00 | 0.00 | 72 | 1015.8 |
| 20260508113306 | 50 | 271 | 2.0 | 3.0 | 0.00 | 0.00 | 0.00 | 72 | 1015.8 |
| 20260508112804 | 49 | 272 | 2.0 | 3.0 | 0.00 | 0.00 | 0.00 | 73 | 1015.8 |
| 20260508112306 | 48 | 271 | 2.0 | 6.0 | 0.00 | 0.00 | 0.00 | 74 | 1015.8 |
| 20260508111304 | 47 | 273 | 1.0 | 3.0 | 0.00 | 0.00 | 0.00 | 77 | 1015.6 |
| 20260508110804 | 46 | 279 | 2.0 | 3.0 | 0.00 | 0.00 | 0.00 | 79 | 1015.6 |
| 20260508110304 | 46 | 259 | 1.0 | 3.0 | 0.00 | 0.00 | 0.00 | 80 | 1015.6 |
| 20260508105804 | 45 | 258 | 1.0 | 3.0 | 0.00 | 0.00 | 0.00 | 82 | 1015.5 |
| 20260508104805 | 45 | 258 | 1.0 | 3.0 | 0.00 | 0.00 | 0.00 | 81 | 1015.3 |
| 20260508102804 | 43 | 270 | 1.0 | 3.0 | 0.00 | 0.00 | 0.00 | 83 | 1015.3 |
| 20260508101803 | 43 | 270 | 1.0 | 2.0 | 0.00 | 0.00 | 0.00 | 81 | 1015.1 |
| 20260508095804 | 45 | 270 | 1.0 | 3.0 | 0.00 | 0.00 | 0.00 | 79 | 1014.9 |
| 20260508094805 | 45 | 269 | 1.0 | 3.0 | 0.00 | 0.00 | 0.00 | 78 | 1014.9 |
| 20260508093805 | 46 | 273 | 1.0 | 6.0 | 0.00 | 0.00 | 0.00 | 77 | 1014.9 |
| 20260508093305 | 46 | 273 | 1.0 | 6.0 | 0.00 | 0.00 | 0.00 | 76 | 1014.9 |
| 20260508092804 | 46 | 270 | 1.0 | 3.0 | 0.00 | 0.00 | 0.00 | 73 | 1014.9 |
| 20260508092312 | 47 | 273 | 2.0 | 3.0 | 0.00 | 0.00 | 0.00 | 71 | 1014.8 |
| 20260508090804 | 48 | 324 | 2.0 | 6.0 | 0.00 | 0.00 | 0.00 | 69 | 1014.8 |
| 20260508090304 | 48 | 295 | 2.0 | 6.0 | 0.00 | 0.00 | 0.00 | 68 | 1014.6 |
| 20260508084804 | 49 | 295 | 2.0 | 5.0 | 0.00 | 0.00 | 0.00 | 66 | 1014.7 |
| 20260508084303 | 49 | 331 | 2.0 | 5.0 | 0.00 | 0.00 | 0.00 | 66 | 1014.6 |
| 20260508082804 | 50 | 293 | 2.0 | 6.0 | 0.00 | 0.00 | 0.00 | 63 | 1014.5 |
| 20260508081804 | 50 | 298 | 2.0 | 9.0 | 0.00 | 0.00 | 0.00 | 63 | 1014.4 |
| 20260508080804 | 50 | 272 | 2.0 | 7.0 | 0.00 | 0.00 | 0.00 | 63 | 1014.3 |
| 20260508074804 | 51 | 285 | 2.0 | 12.0 | 0.00 | 0.01 | 0.00 | 62 | 1013.6 |
| 20260508074304 | 51 | 326 | 4.0 | 9.0 | 0.00 | 0.02 | 0.00 | 63 | 1013.6 |
| 20260508073804 | 50 | 297 | 3.0 | 9.0 | 0.00 | 0.02 | 0.00 | 64 | 1013.5 |
| 20260508073304 | 50 | 302 | 3.0 | 9.0 | 0.00 | 0.02 | 0.00 | 66 | 1013.5 |
| 20260508071805 | 50 | 268 | 2.0 | 10.0 | 0.00 | 0.02 | 0.00 | 70 | 1013.2 |
| 20260508071304 | 50 | 302 | 2.0 | 9.0 | 0.00 | 0.02 | 0.00 | 71 | 1013.3 |
| 20260508070805 | 50 | 269 | 3.0 | 9.0 | 0.00 | 0.02 | 0.00 | 72 | 1013.3 |
| 20260508070304 | 50 | 281 | 2.0 | 9.0 | 0.00 | 0.02 | 0.00 | 75 | 1013.2 |
| 20260508065804 | 50 | 305 | 2.0 | 7.0 | 0.00 | 0.02 | 0.00 | 78 | 1013.1 |
| 20260508065306 | 50 | 304 | 2.0 | 7.0 | 0.00 | 0.02 | 0.00 | 79 | 1013.1 |
| 20260508064804 | 50 | 289 | 2.0 | 7.0 | 0.00 | 0.02 | 0.00 | 80 | 1013.0 |
| 20260508064306 | 50 | 288 | 2.0 | 5.0 | 0.00 | 0.02 | 0.00 | 80 | 1013.1 |
| 20260508061803 | 50 | 297 | 2.0 | 7.0 | 0.00 | 0.02 | 0.00 | 85 | 1012.9 |
| 20260508061304 | 50 | 267 | 2.0 | 7.0 | 0.00 | 0.02 | 0.00 | 85 | 1012.8 |
| 20260508060305 | 50 | 280 | 1.0 | 5.0 | 0.00 | 0.02 | 0.00 | 85 | 1012.8 |
| 20260508055804 | 50 | 287 | 2.0 | 9.0 | 0.00 | 0.02 | 0.00 | 85 | 1012.7 |
| 20260508055306 | 50 | 352 | 2.0 | 9.0 | 0.00 | 0.02 | 0.00 | 85 | 1012.7 |